Weather History for CWGB - February, 2013

Change the Weather History Date:

Thursday, February 7, 2013

  Actual Average Record
Temperature  
Mean Temperature 43 °F -  
Max Temperature 46 °F - - ()
Min Temperature 40 °F - - ()
Degree Days  
Heating Degree Days 22    
Moisture  
Dew Point 37 °F    
Average Humidity 77    
Maximum Humidity 87    
Minimum Humidity 63    
Precipitation  
Precipitation 0.12 in - - ()
Sea Level Pressure  
Sea Level Pressure 29.91 in    
Wind  
Wind Speed 16 mph ()    
Max Wind Speed 37 mph    
Max Gust Speed 44 mph    
T = Trace of Precipitation, MM = Missing Value Source: Averaged Metar Reports

Daily Weather History Graph

Daily Weather History Graph

Search for Another Location

Airport or City:

Trip Planner

Search our weather history database for the weather conditions in past years. The results will help you decide how hot, cold, wet, or windy it might be!

Date:

Astronomy

Feb. 07, 2013 Rise Set
Actual Time 7:38 AM PST 5:23 PM PST
Civil Twilight 7:04 AM PST 5:57 PM PST
Nautical Twilight 6:27 AM PST 6:35 PM PST
Astronomical Twilight 5:50 AM PST 7:12 PM PST
Moon 5:31 AM PST (2/7) 2:47 PM PST (2/7)
Length of Visible Light 10h 52m
Length of Day
9h 45m
Waning Crescent, 8% of the Moon is Illuminated
Feb 7
Waning Crescent
Feb 9
New
Feb 17
First Quarter
Feb 25
Full
Mar 4
Last Quarter

Hourly Weather History & Observations

Time (PST) Temp. Windchill Dew Point Humidity Pressure Visibility Wind Dir Wind Speed Gust Speed Precip Events Conditions
12:00 AM 46.4 °F 36.3 °F 39.7 °F 78% 29.63 in - East 36.8 mph 43.7 mph N/A   Unknown
1:00 AM 46.0 °F 36.1 °F 40.3 °F 80% 29.62 in - ESE 34.5 mph 43.7 mph 0.01 in   Unknown
2:00 AM 43.9 °F 38.8 °F 40.3 °F 87% 29.68 in - SSE 9.2 mph 20.7 mph 0.04 in   Unknown
3:00 AM 45.0 °F 36.6 °F 40.6 °F 85% 29.66 in - ESE 21.9 mph - 0.05 in   Unknown
4:00 AM 46 °F - 42 °F 80% 29.67 in - ESE 24.2 mph - -  
4:00 AM 45.7 °F 37.1 °F 41.7 °F 86% 29.67 in - ESE 24.2 mph 29.9 mph 0.01 in   Unknown
5:00 AM 45.9 °F 36.3 °F 40.6 °F 82% 29.70 in - ESE 31.1 mph 36.8 mph N/A   Unknown
6:00 AM 45.5 °F 36.5 °F 38.8 °F 78% 29.73 in - ESE 26.5 mph - N/A   Unknown
7:00 AM 44.8 °F 36.4 °F 36.5 °F 73% 29.77 in - ESE 21.9 mph 27.6 mph N/A   Unknown
8:00 AM 44.4 °F 38.2 °F 36.1 °F 73% 29.83 in - SE 12.7 mph 21.9 mph N/A   Unknown
9:00 AM 43.2 °F 39.0 °F 36.1 °F 76% 29.88 in - SE 6.9 mph - N/A   Unknown
10:00 AM 44 °F - 35 °F 63% 29.90 in - South 3.5 mph - -  
10:00 AM 43.9 °F 42.3 °F 35.4 °F 72% 29.90 in - South 3.5 mph - N/A   Unknown
11:00 AM 44.8 °F - 34.2 °F 66% 29.95 in - South 2.3 mph - N/A   Unknown
12:00 PM 45.3 °F 43.0 °F 33.6 °F 64% 29.97 in - SE 4.6 mph - N/A   Unknown
1:00 PM 44.8 °F 39.0 °F 36.9 °F 74% 29.99 in - ESE 11.5 mph - N/A   Unknown
2:00 PM 45.9 °F 41.2 °F 37.4 °F 72% 30.00 in - ESE 9.2 mph - N/A   Unknown
3:00 PM 45.7 °F 40.6 °F 37.8 °F 74% 30.01 in - East 10.4 mph - N/A   Unknown
4:00 PM 45 °F - 38 °F 68% 30.03 in - East 11.5 mph - -  
4:00 PM 45.1 °F 39.5 °F 37.8 °F 75% 30.03 in - East 11.5 mph - N/A   Unknown
5:00 PM 44.6 °F 40.7 °F 37.9 °F 77% 30.05 in - East 6.9 mph - N/A   Unknown
6:00 PM 43.7 °F 41.1 °F 39.7 °F 86% 30.08 in - ESE 4.6 mph - N/A   Unknown
7:00 PM 41.2 °F 37.3 °F 36.9 °F 85% 30.10 in - SW 5.8 mph - N/A   Unknown
8:00 PM 41.0 °F 34.7 °F 36.1 °F 83% 30.12 in - WSW 10.4 mph - N/A   Unknown
9:00 PM 40.3 °F 34.4 °F 35.4 °F 83% 30.14 in - WSW 9.2 mph - N/A   Unknown
10:00 PM 40 °F - 35 °F 75% 30.16 in - SW 10.4 mph - -  
10:00 PM 40.5 °F 34.1 °F 34.9 °F 80% 30.16 in - SW 10.4 mph - N/A   Unknown
11:00 PM 40.1 °F 33.2 °F 35.2 °F 83% 30.16 in - WSW 11.5 mph - N/A   Unknown